Lander, WY

3:03 AM MDT on July 21, 2017 (GMT -0600)
Hunt

Weather History for KLND - February, 2013

Change the Weather History Date:

Thursday, February 21, 2013

  Actual Average Record
Temperature  
Mean Temperature 22 °F 27 °F  
Max Temperature 29 °F 38 °F 65 °F (1982)
Min Temperature 15 °F 16 °F -16 °F (1939)
Degree Days  
Heating Degree Days 43 38  
Month to date heating degree days 857 858  
Since 1 July heating degree days 5070 5448  
Cooling Degree Days 0 0  
Month to date cooling degree days 0 0  
Year to date cooling degree days 0 0  
Moisture  
Dew Point 16 °F    
Average Humidity 77    
Maximum Humidity 91    
Minimum Humidity 63    
Precipitation  
Precipitation T in 0.02 in 0.38 in (2015)
Month to date precipitation 0.87 0.40  
Year to date precipitation 1.57 0.81  
Snow  
Snow 0.10 in 0.40 in - ()
Month to date snowfall 17.2 7.5  
Since 1 July snowfall 45.6 50.8  
Snow Depth 3.00 in    
Sea Level Pressure  
Sea Level Pressure 29.89 in    
Wind  
Wind Speed 3 mph (SSE)    
Max Wind Speed 9 mph    
Max Gust Speed 12 mph    
Visibility 8 miles    
Events Snow    
T = Trace of Precipitation, MM = Missing Value Source: NWS Daily Summary

Daily Weather History Graph

Daily Weather History Graph

Search for Another Location

Airport or City:

Trip Planner

Search our weather history database for the weather conditions in past years. The results will help you decide how hot, cold, wet, or windy it might be!

Date:

Astronomy

Feb. 21, 2013 Rise Set
Actual Time 7:02 AM MST 5:54 PM MST
Civil Twilight 6:34 AM MST 6:23 PM MST
Nautical Twilight 6:01 AM MST 6:56 PM MST
Astronomical Twilight 5:28 AM MST 7:29 PM MST
Moon 2:08 PM MST 4:13 AM MST
Length of Visible Light 11h 49m
Length of Day
10h 51m
Waxing Gibbous, 84% of the Moon is Illuminated
Feb 21
Waxing Gibbous
Feb 25
Full
Mar 4
Last Quarter
Mar 11
New
Mar 19
First Quarter

Hourly Weather History & Observations

Time (MST) Temp. Windchill Dew Point Humidity Pressure Visibility Wind Dir Wind Speed Gust Speed Precip Events Conditions
12:53 AM 17.1 °F - 10.9 °F 77% 29.81 in 10.0 mi Calm Calm - N/A   Clear
1:53 AM 18.0 °F 11.1 °F 12.0 °F 78% 29.82 in 10.0 mi SE 4.6 mph - N/A   Mostly Cloudy
2:02 AM 19.4 °F 12.8 °F 12.2 °F 74% 29.73 in 10.0 mi SE 4.6 mph - N/A   Overcast
2:53 AM 19.9 °F - 14.0 °F 78% 29.83 in 10.0 mi Calm Calm - N/A   Overcast
3:53 AM 19.9 °F 14.9 °F 14.0 °F 78% 29.83 in 10.0 mi East 3.5 mph - N/A   Overcast
4:53 AM 19.9 °F - 15.1 °F 81% 29.85 in 9.0 mi Calm Calm - N/A   Overcast
5:53 AM 19.9 °F - 15.1 °F 81% 29.88 in 5.0 mi Calm Calm - 0.00 in Snow Light Snow
6:53 AM 19.9 °F 14.9 °F 15.1 °F 81% 29.91 in 4.0 mi NNW 3.5 mph - 0.00 in Snow Light Snow
7:53 AM 19.9 °F - 16.0 °F 85% 29.94 in 2.5 mi Calm Calm - 0.00 in Snow Light Snow
8:26 AM 19.4 °F - 15.8 °F 86% 29.82 in 1.8 mi Calm Calm - 0.00 in Snow Light Snow
8:53 AM 19.9 °F - 17.1 °F 89% 29.96 in 1.8 mi Calm Calm - 0.00 in Snow Light Snow
9:33 AM 19.4 °F - 17.6 °F 93% 29.83 in 2.5 mi Calm Calm - 0.00 in   Overcast
9:41 AM 21.2 °F - 17.6 °F 86% 29.83 in 3.0 mi Calm Calm - 0.00 in   Overcast
9:53 AM 21.0 °F - 17.1 °F 85% 29.97 in 3.0 mi Calm Calm - 0.00 in   Overcast
10:53 AM 23.0 °F - 18.0 °F 81% 29.96 in 4.0 mi Calm Calm - N/A   Haze
11:12 AM 24.8 °F 19.1 °F 19.4 °F 80% 29.83 in 6.0 mi South 4.6 mph - N/A   Haze
11:26 AM 24.8 °F 19.1 °F 17.6 °F 74% 29.83 in 9.0 mi South 4.6 mph - N/A   Scattered Clouds
11:53 AM 26.1 °F 20.5 °F 19.0 °F 75% 29.95 in 10.0 mi ESE 4.6 mph - N/A   Clear
12:53 PM 28.0 °F 20.0 °F 19.0 °F 69% 29.93 in 10.0 mi ESE 8.1 mph - N/A   Clear
1:53 PM 28.0 °F 21.7 °F 17.1 °F 63% 29.91 in 10.0 mi SSE 5.8 mph - N/A   Clear
2:53 PM 28.0 °F 24.2 °F 17.1 °F 63% 29.91 in 10.0 mi ESE 3.5 mph - N/A   Clear
3:53 PM 28.9 °F 21.9 °F 17.1 °F 61% 29.89 in 10.0 mi SSE 6.9 mph - N/A   Clear
4:53 PM 27.0 °F 18.7 °F 17.1 °F 66% 29.90 in 10.0 mi SSE 8.1 mph - N/A   Mostly Cloudy
5:53 PM 21.9 °F 14.5 °F 15.1 °F 75% 29.93 in 10.0 mi SSE 5.8 mph - N/A   Clear
6:53 PM 21.9 °F 14.5 °F 15.1 °F 75% 29.94 in 10.0 mi SSE 5.8 mph - N/A   Mostly Cloudy
7:53 PM 23.0 °F 14.7 °F 15.1 °F 72% 29.94 in 10.0 mi SSW 6.9 mph - N/A   Overcast
8:53 PM 21.9 °F - 15.1 °F 75% 29.96 in 10.0 mi Calm Calm - N/A   Overcast
9:53 PM 19.9 °F 13.4 °F 14.0 °F 78% 29.96 in 10.0 mi SW 4.6 mph - N/A   Mostly Cloudy
10:53 PM 19.9 °F 13.4 °F 12.0 °F 71% 29.96 in 10.0 mi SW 4.6 mph - N/A   Overcast
11:53 PM 19.9 °F 14.9 °F 12.0 °F 71% 29.95 in 10.0 mi WSW 3.5 mph - N/A   Mostly Cloudy